Weather History for Wausau, WI

Change the Weather History Date:

Monday, December 3, 2012

  Actual Average Record
Temperature  
Mean Temperature 48 °F 24 °F  
Max Temperature 58 °F 31 °F 60 °F (1998)
Min Temperature 38 °F 16 °F -20 °F (1940)
Degree Days  
Heating Degree Days 17 42  
Month to date heating degree days 69 124  
Since 1 July heating degree days 1838 1983  
Cooling Degree Days 0 0  
Month to date cooling degree days 0 0  
Year to date cooling degree days 725 407  
Moisture  
Dew Point 47 °F    
Average Humidity 90    
Maximum Humidity 100    
Minimum Humidity 80    
Precipitation  
Precipitation 0.09 in 0.05 in 0.52 in (1953)
Month to date precipitation 0.10 0.16  
Year to date precipitation 27.95 31.21  
Snow  
Snow 0.00 in 0.40 in 10.10 in (1990)
Month to date snowfall 0.0 1.2  
Since 1 July snowfall 2.3 9.5  
Snow Depth 0.00 in    
Sea Level Pressure  
Sea Level Pressure 29.73 in    
Wind  
Wind Speed 12 mph (South)    
Max Wind Speed 24 mph    
Max Gust Speed 32 mph    
Visibility 3 miles    
Events Fog , Rain    
T = Trace of Precipitation, MM = Missing Value Source: NWS Daily Summary

Daily Weather History Graph

Daily Weather History Graph

Search for Another Location

Airport:

Trip Planner

Search our weather history database for the weather conditions in past years. The results will help you decide how hot, cold, wet, or windy it might be!

Date:

Astronomy

Dec. 03, 2012 Rise Set
Actual Time 7:19 AM CST 4:17 PM CST
Civil Twilight 6:45 AM CST 4:51 PM CST
Nautical Twilight 6:09 AM CST 5:27 PM CST
Astronomical Twilight 5:33 AM CST 6:03 PM CST
Moon 9:11 PM CST (12/3) 10:36 AM CST (12/3)
Length of Visible Light 10h 05m
Length of Day
8h 58m
Waning Gibbous, 78% of the Moon is Illuminated
Dec 3
Waning Gibbous
Dec 6
Last Quarter
Dec 13
New
Dec 19
First Quarter
Dec 28
Full

Hourly Weather History & Observations

Time (CST) Temp. Windchill Dew Point Humidity Pressure Visibility Wind Dir Wind Speed Gust Speed Precip Events Conditions
12:54 AM 37.9 °F 30.9 °F 37.9 °F 100% 29.99 in 0.5 mi SE 10.4 mph - N/A Fog Fog
1:54 AM 39.0 °F 34.0 °F 39.0 °F 100% 29.99 in 0.5 mi SE 6.9 mph - N/A Fog Fog
2:54 AM 39.0 °F 34.8 °F 39.0 °F 100% 29.97 in 0.5 mi SE 5.8 mph - N/A Fog Fog
3:54 AM 39.9 °F 34.5 °F 39.0 °F 97% 29.94 in 0.2 mi SE 8.1 mph - N/A Fog Fog
4:54 AM 41.0 °F 35.2 °F 41.0 °F 100% 29.91 in 0.5 mi SE 9.2 mph - N/A Fog Fog
5:54 AM 42.1 °F 37.1 °F 41.0 °F 96% 29.88 in 0.5 mi ESE 8.1 mph - N/A Fog Fog
6:54 AM 42.1 °F 37.1 °F 42.1 °F 100% 29.87 in 0.5 mi SE 8.1 mph - N/A Fog Fog
7:54 AM 43.0 °F 38.2 °F 43.0 °F 100% 29.83 in 0.2 mi ESE 8.1 mph - N/A Fog Fog
9:54 AM 46.0 °F 39.6 °F 46.0 °F 100% 29.78 in 0.5 mi SE 15.0 mph - N/A Fog Fog
10:54 AM 46.9 °F - 46.9 °F 100% 29.74 in 0.2 mi SSE 10.4 mph 19.6 mph N/A Fog Fog
11:54 AM 48.9 °F - 48.9 °F 100% 29.69 in 0.8 mi SSE 12.7 mph - 0.00 in Rain Light Rain
12:26 PM 50.0 °F - 50.0 °F 100% 29.63 in 1.0 mi SSE 12.7 mph - 0.00 in Rain Light Rain
12:54 PM 50.0 °F - 50.0 °F 100% 29.65 in 1.0 mi SSE 11.5 mph - 0.00 in Rain Light Rain
1:02 PM 50.0 °F - 50.0 °F 100% 29.62 in 0.8 mi SSE 9.2 mph - 0.01 in Rain Light Rain
1:30 PM 51.8 °F - 51.8 °F 100% 29.61 in 1.0 mi SSE 10.4 mph - 0.01 in Rain Light Rain
1:54 PM 53.1 °F - 53.1 °F 100% 29.63 in 1.0 mi South 12.7 mph - 0.01 in Rain Light Rain
2:27 PM 55.4 °F - 53.6 °F 94% 29.59 in 2.0 mi South 13.8 mph - 0.00 in   Overcast
2:54 PM 55.0 °F - 54.0 °F 96% 29.62 in 3.0 mi South 16.1 mph 24.2 mph 0.00 in   Overcast
3:02 PM 55.4 °F - 55.4 °F 100% 29.59 in 3.0 mi South 13.8 mph 24.2 mph N/A   Overcast
3:54 PM 57.0 °F - 55.0 °F 93% 29.62 in 4.0 mi SSW 10.4 mph - N/A   Overcast
4:01 PM 55.4 °F - 53.6 °F 94% 29.59 in 3.0 mi South 9.2 mph - N/A   Overcast
4:54 PM 57.0 °F - 55.0 °F 93% 29.61 in 4.0 mi South 11.5 mph - N/A   Overcast
5:47 PM 57.2 °F - 55.4 °F 94% 29.59 in 2.0 mi SW 15.0 mph 25.3 mph 0.07 in Rain Heavy Rain
5:54 PM 57.9 °F - 55.0 °F 90% 29.63 in 4.0 mi WSW 16.1 mph 31.1 mph 0.07 in Rain Light Rain
6:05 PM 57.2 °F - 53.6 °F 88% 29.61 in 7.0 mi West 18.4 mph 26.5 mph 0.01 in Rain Light Rain
6:20 PM 55.4 °F - 51.8 °F 88% 29.62 in 7.0 mi West 18.4 mph 25.3 mph 0.01 in   Mostly Cloudy
6:54 PM 51.1 °F - 46.9 °F 86% 29.68 in 7.0 mi West 16.1 mph 21.9 mph 0.01 in   Scattered Clouds
7:54 PM 48.9 °F - 43.0 °F 80% 29.73 in 10.0 mi WNW 18.4 mph - N/A   Partly Cloudy
8:54 PM 46.0 °F 39.3 °F 41.0 °F 83% 29.78 in 10.0 mi West 16.1 mph - N/A   Clear
9:54 PM 44.1 °F 37.7 °F 39.0 °F 82% 29.81 in 10.0 mi West 12.7 mph - N/A   Clear
10:54 PM 42.1 °F 36.1 °F 37.0 °F 82% 29.84 in 10.0 mi WNW 10.4 mph - N/A   Clear
11:54 PM 42.1 °F 34.9 °F 35.1 °F 76% 29.86 in 10.0 mi West 13.8 mph - N/A   Clear